Weather in Suzuka

Japan     34°53′30″N   136°33′53″E
temp.,
°C
wind,
m/s
gust,
m/s
humid.,
%
clouds,
%
prec.,
mm/h
press.,
hPa
HPBL,
m
26 february, fri
fri2600:00+7nnw1228100 0.0 102560
03:00+6nnw2333100 0.0 1023109
06:00+6nnw2450100 0.1 1023119
09:00+7nnw4658100 0.1 1023478
12:00+11nnw234599 0.0 1022920
15:00+11nw354499 0.0 1020963
18:00+8nw3557100 0.0 1021332
21:00+7nnw3559100 0.0 1021289
27 february, sat
sat2700:00+6nw2357100 0.0 1021124
03:00+4nw3457100 0.0 1022226
06:00+3wnw3559100 0.0 1025276
09:00+4nw3454100 0.0 1027452
12:00+8wnw2337100 0.0 1026729
15:00+9wnw343973 0.0 1025634
18:00+5wnw34550 0.0 1028229
21:00+3wnw23629 0.0 1032108
28 february, sun
sun2800:00+3nnw116091 0.0 103347
03:00+4ene115975 0.0 103331
06:00+4ne126369 0.0 1034105
09:00+6e355871 0.0 1035763
12:00+8se466291 0.0 10331059
15:00+9se466194 0.1 10311173
18:00+8se366859 0.0 1033782
21:00+8e366963 0.1 1034488
1 march, mon
mon100:00+8e367191 0.0 1032508
03:00+8e257296 0.0 1031555
06:00+7nne2465100 0.0 1030192
09:00+8nne236698 0.1 1030149
12:00+10ene1166100 0.0 1027244
15:00+12se1361100 0.0 1024452
18:00+11se1377100 0.1 1024215
21:00+11se3888100 0.2 1023524
2 march, tue
tue200:00+12ese3692100 0.4 1020291
03:00+12se3995100 0.8 1016543
06:00+13sse51293100 0.9 1013881
09:00+14sse61496100 2.8 10101046
12:00+16s71694100 2.6 10041145
15:00+11nw81382100 7.3 1006696
18:00+5nw71779100 3.8 10111034
21:00+4nw61676100 3.9 10151329